User: anonymous   Login
Location: Allos
(44.2333°N, 6.6333°E)
Time: 13:13:27
(UTC+00:00)
Language:

Helios 1A Rocket - Orbit

View from above orbital plane
View from above orbital plane
View from above satellite
View from above satellite

Ground track
Ground track

The orbit data is extracted from the following two-line orbital elements,

1 23608U 95033D   21061.86108278  .00000023  00000-0  76721-5 0  9992
2 23608  98.3065  95.7314 0017667 105.1379 255.1797 14.97587429390110
Epoch (UTC): 02 March 2021 20:39:57
Eccentricity: 0.0017667
inclination: 98.3065°
perigee height: 562 km
apogee height: 586 km
right ascension of ascending node: 95.7314°
argument of perigee: 105.1379°
revolutions per day: 14.97587429
mean anomaly at epoch: 255.1797°
orbit number at epoch: 39011

The dashed part of the orbit path shows where the satellite is in the earth's shadow,  

DLR